Home   Weather   Caledon   Past weeks

Flag for Canada Past Weather in Caledon, Ontario, Canada — Yesterday and Last 2 Weeks

Now
59 °F

Partly cloudy.


Feels Like: 57 °F
Forecast: 49 / 64 °F
Wind: 9 mph from Southeast

Location: Toronto Pearson International Airport

Current Time: Sep 26, 2016 at 1:27:39 AM

Latest Report: Sep 26, 2016 at 1:00 AM


Visibility: 15 mi

Pressure: 30.08 "Hg

Humidity: 59%

Dew Point: 45 °F

Location of CaledonLocation

Past Weather in Caledon — Graph

°F

Caledon Temperature Yesterday

Maximum temperature yesterday: 64 °F (at 3:00 PM)
Minimum temperature yesterday: 48 °F (at 4:00 AM)
Average temperature yesterday: 56 °F

High & Low Weather Summary for the Past Weeks

 TemperatureHumidityPressure
High84 °F (Sep 22, 3:00 PM)94% (Sep 17, 2:00 AM)30.37 "Hg (Sep 17, 2:00 AM)
Low48 °F (Sep 24, 5:00 AM)22% (Sep 20, 7:00 PM)29.78 "Hg (Sep 11, 12:00 AM)
Average66 °F65%30.11 "Hg
* Reported Sep 11 12:00 AM — Sep 26 12:00 AM, Caledon, Weather by CustomWeather, © 2016

Note: Actual official high and low records may vary slightly from our data, if they occured in-between our weather recording intervals... More about our weather records

Advertising

Caledon Weather History for the Previous 24 Hours

Scroll right to see more
 ConditionsComfort  
Time TempWeatherWind HumidityBarometerVisibility
12:00 AM
Mon, Sep 26
57 °FPartly cloudy.7 mph63%30.11 "Hg15 mi
11:00 PM
Sun, Sep 25
57 °FPassing clouds.6 mph59%30.13 "Hg15 mi
10:00 PM55 °FPassing clouds.5 mph59%30.16 "Hg15 mi
9:00 PM57 °FPassing clouds.5 mph51%30.17 "Hg15 mi
8:00 PM57 °FPassing clouds.6 mph48%30.17 "Hg15 mi
7:00 PM59 °FPartly sunny.7 mph48%30.17 "Hg15 mi
6:00 PM59 °FPartly sunny.7 mph48%30.18 "Hg15 mi
5:00 PM63 °FPartly sunny.9 mph45%30.17 "Hg15 mi
4:00 PM63 °FPartly sunny.9 mph49%30.19 "Hg15 mi
3:00 PM64 °FPartly sunny.9 mph46%30.21 "Hg15 mi
2:00 PM63 °FBroken clouds.7 mph52%30.23 "Hg15 mi
1:00 PM63 °FBroken clouds.9 mph52%30.25 "Hg15 mi
12:00 PM63 °FBroken clouds.8 mph49%30.26 "Hg15 mi
11:00 AM61 °FBroken clouds.6 mph52%30.27 "Hg15 mi
10:00 AM59 °FBroken clouds.5 mph55%30.27 "Hg15 mi
9:00 AM54 °FScattered clouds.5 mph63%30.28 "Hg15 mi
8:00 AM50 °FScattered clouds.6 mph67%30.27 "Hg15 mi
7:00 AM48 °FPassing clouds.6 mph71%30.26 "Hg15 mi
6:00 AM48 °FPassing clouds.5 mph71%30.25 "Hg15 mi
5:00 AM50 °FClear.3 mph67%30.26 "Hg15 mi
4:00 AM48 °FClear.2 mph76%30.26 "Hg15 mi
3:00 AM50 °FClear.6 mph71%30.26 "Hg15 mi
2:00 AM52 °FClear.7 mph67%30.26 "Hg15 mi
1:00 AM52 °FClear.7 mph67%30.26 "Hg15 mi
Weather by CustomWeather, © 2016

See weather overviewHow to use our weather pages